This demonstration page uses our WeatherBlox Daily Observations layout. Learn more.

Hourly Observations for December 20, 2017

Temp ( °F °C ) Dew Point ( °F °C ) Humidity (%) Winds ( mph kmh ) Pressure ( in mb ) Visibility ( mi km ) Precip ( " mm )
12:15 am 00:15 Clear 24 -4.3 14 -10.2 64 64 E 3 6 30.21 1023 10 16.09344 0 0
12:35 am 00:35 Clear 24 -4.3 14 -9.9 65 65 Calm 30.21 1023 10 16.09344 0 0
12:55 am 00:55 Clear 23 -4.9 14 -10.1 67 67 Calm 30.21 1023 10 16.09344 0 0
1:15 am 01:15 Clear 22 -5.3 14 -10 70 70 Calm 30.21 1023 10 16.09344 0 0
1:35 am 01:35 Clear 23 -5.2 13 -10.4 67 67 E 3 6 30.21 1023 10 16.09344 0 0
1:55 am 01:55 Clear 23 -5.2 14 -10.2 68 68 E 5 7 30.18 1022 10 16.09344 0 0
2:15 am 02:15 Clear 22 -5.6 13 -10.4 69 69 ESE 6 9 30.18 1022 10 16.09344 0 0
2:35 am 02:35 Clear 21 -6.2 13 -10.4 72 72 Calm 30.21 1023 10 16.09344 0 0
2:55 am 02:55 Clear 23 -5.2 14 -10.2 68 68 ESE 6 9 30.18 1022 10 16.09344 0 0
3:15 am 03:15 Clear 19 -7.1 13 -10.6 76 76 ESE 6 9 30.21 1023 10 16.09344 0 0
3:35 am 03:35 Clear 22 -5.7 14 -9.9 73 73 ESE 5 7 30.18 1022 10 16.09344 0 0
3:55 am 03:55 Clear 23 -5 15 -9.6 70 70 SE 9 15 30.15 1021 10 16.09344 0 0
4:15 am 04:15 Clear 23 -4.9 15 -9.4 71 71 SE 8 13 30.15 1021 10 16.09344 0 0
4:35 am 04:35 Clear 22 -5.8 15 -9.7 74 74 SE 9 15 30.15 1021 10 16.09344 0 0
4:55 am 04:55 Clear 23 -5 15 -9.5 71 71 SE 9 15 30.15 1021 10 16.09344 0 0
5:15 am 05:15 Clear 23 -4.9 15 -9.4 71 71 SE 10 17 30.12 1020 10 16.09344 0 0
5:35 am 05:35 Clear 23 -5 15 -9.5 71 71 SE 8 13 30.12 1020 10 16.09344 0 0
5:55 am 05:55 Clear 24 -4.6 15 -9.2 71 71 SE 8 13 30.12 1020 10 16.09344 0 0
6:15 am 06:15 Clear 23 -4.8 15 -9.3 71 71 SE 9 15 30.12 1020 10 16.09344 0 0
6:35 am 06:35 Clear 22 -5.6 15 -9.6 74 74 SSE 9 15 30.12 1020 10 16.09344 0 0
6:55 am 06:55 Clear 22 -5.5 15 -9.4 74 74 SSE 8 13 30.12 1020 10 16.09344 0 0
7:15 am 07:15 Clear 22 -5.5 15 -9.3 75 75 SSE 7 11 30.12 1020 10 16.09344 0 0
7:35 am 07:35 Clear 22 -5.5 16 -9.1 76 76 SSE 7 11 30.12 1020 10 16.09344 0 0
7:55 am 07:55 Clear 22 -5.5 16 -9.1 76 76 SSE 9 15 30.12 1020 10 16.09344 0 0
8:15 am 08:15 Partly Cloudy 22 -5.5 16 -9 77 77 SSE 6 9 30.12 1020 10 16.09344 0 0
8:35 am 08:35 Mostly Cloudy 24 -4.4 17 -8.2 75 75 SSE 6 9 30.12 1020 10 16.09344 0 0
8:55 am 08:55 Cloudy 27 -3 19 -7.3 73 73 SSE 8 13 30.09 1019 10 16.09344 0 0
9:15 am 09:15 Cloudy 28 -2 20 -6.9 69 69 SSE 12 19 30.09 1019 10 16.09344 0 0
9:35 am 09:35 Cloudy 30 -1.2 20 -6.7 67 67 S 13 20 30.09 1019 10 16.09344 0 0
9:55 am 09:55 Cloudy 30 -1 20 -6.6 66 66 S 10 17 30.09 1019 7 11.265408 0 0
10:15 am 10:15 Cloudy 31 -0.6 21 -6.3 66 66 S 9 15 30.03 1017 10 16.09344 0 0
10:35 am 10:35 Cloudy 32 0 22 -5.7 66 66 S 10 17 30.03 1017 10 16.09344 0 0
10:55 am 10:55 Cloudy 33 0.5 23 -4.8 68 68 S 16 26 30 1016 10 16.09344 0 0
11:15 am 11:15 Cloudy 34 0.9 24 -4.2 69 69 S 13 20 30 1016 10 16.09344 0 0
11:35 am 11:35 Cloudy 35 1.6 26 -3.3 70 70 S 14 22 30 1016 10 16.09344 0 0
11:55 am 11:55 Cloudy 36 2.3 27 -2.7 70 70 S 15 24 29.94 1014 10 16.09344 0 0
12:15 pm 12:15 Cloudy 37 2.8 29 -1.8 72 72 S 15 24 29.94 1014 10 16.09344 0 0
12:35 pm 12:35 Cloudy with Haze 38 3.6 31 -0.5 75 75 S 20 31 29.91 1013 5 8.04672 0 0
12:55 pm 12:55 Cloudy 39 3.8 32 0 77 77 S 18 30 29.88 1012 10 16.09344 0 0
1:15 pm 13:15 Partly Cloudy 41 4.9 33 0.6 74 74 S 21 33 29.85 1011 7 11.265408 0 0
1:35 pm 13:35 Hazy 42 5.3 33 0.6 72 72 S 15 24 29.83 1010 5 8.04672 0 0
1:55 pm 13:55 Sunny 43 6 34 1 71 71 S 16 26 29.83 1010 7 11.265408 0 0
2:15 pm 14:15 Hazy 44 6.5 34 1.2 69 69 S 15 24 29.83 1010 5 8.04672 0 0
2:35 pm 14:35 Sunny 44 6.5 33 0.5 66 66 S 15 24 29.83 1010 7 11.265408 0 0
2:55 pm 14:55 Sunny 44 6.4 32 0 64 64 S 14 22 29.83 1010 7 11.265408 0 0
3:15 pm 15:15 Sunny 43 6.3 32 0 64 64 S 14 22 29.83 1010 10 16.09344 0 0
3:35 pm 15:35 Sunny 44 6.6 33 0.5 65 65 SSE 10 17 29.83 1010 10 16.09344 0 0
3:55 pm 15:55 Sunny 44 6.6 33 0.6 66 66 S 12 19 29.83 1010 10 16.09344 0 0
4:15 pm 16:15 Sunny 44 6.5 34 1 68 68 SSE 17 28 29.8 1009 10 16.09344 0 0
4:35 pm 16:35 Sunny 43 6 34 1.1 71 71 SSE 16 26 29.8 1009 10 16.09344 0 0
4:55 pm 16:55 Sunny 42 5.7 34 1 72 72 SSE 13 20 29.8 1009 10 16.09344 0 0
5:15 pm 17:15 Clear 39 3.9 32 0 76 76 SSE 8 13 29.8 1009 10 16.09344 0 0
5:35 pm 17:35 Clear 37 3 32 -0.1 80 80 SSE 5 7 29.83 1010 7 11.265408 0 0
5:55 pm 17:55 Clear 35 1.5 31 -0.7 85 85 SSE 8 13 29.83 1010 7 11.265408 0 0
6:15 pm 18:15 Clear 35 1.4 30 -0.9 85 85 SSE 7 11 29.83 1010 10 16.09344 0 0
6:35 pm 18:35 Clear 33 0.4 31 -0.8 92 92 SSE 6 9 29.85 1011 10 16.09344 0 0
6:55 pm 18:55 Clear 31 -0.7 28 -2.1 90 90 SE 5 7 29.85 1011 10 16.09344 0 0
7:15 pm 19:15 Clear 31 -0.4 30 -1 96 96 SSE 6 9 29.85 1011 7 11.265408 0 0
7:35 pm 19:35 Clear 32 -0.2 30 -1.3 92 92 SSE 9 15 29.85 1011 7 11.265408 0 0
7:55 pm 19:55 Clear 32 -0.1 31 -0.6 96 96 SSE 10 17 29.83 1010 7 11.265408 0 0
8:15 pm 20:15 Clear with Mist and Fog 33 0.4 32 0 97 97 SSE 9 15 29.8 1009 5 8.04672 0 0
8:35 pm 20:35 Clear with Mist and Fog 32 0.1 32 0 99 99 SSE 10 17 29.83 1010 5 8.04672 0 0
8:55 pm 20:55 Clear with Mist and Fog 35 1.5 35 1.5 100 100 SSE 10 17 29.8 1009 5 8.04672 0 0
9:15 pm 21:15 Mostly Cloudy with Mist and Fog 39 3.9 39 3.9 100 100 SSE 16 26 29.77 1008 5 8.04672 0 0
9:30 pm 21:30 Cloudy with Mist and Fog 40 4.6 40 4.4 99 99 S 15 24 29.77 1008 4 6.437376 0 0
9:55 pm 21:55 Cloudy with Mist and Fog 41 4.9 41 4.8 99 99 S 15 24 29.77 1008 4 6.437376 0 0
10:15 pm 22:15 Cloudy with Mist and Fog 41 4.8 40 4.7 99 99 S 15 24 29.77 1008 4 6.437376 0 0
10:35 pm 22:35 Cloudy with Mist and Fog 41 5 41 5 100 100 S 14 22 29.74 1007 3 4.828032 0 0
10:55 pm 22:55 Cloudy with Mist and Fog 41 5.1 41 5.1 100 100 S 13 20 29.74 1007 3 4.828032 0 0
11:15 pm 23:15 Cloudy with Mist and Fog 42 5.4 42 5.4 100 100 S 14 22 29.74 1007 3 4.828032 0 0
11:35 pm 23:35 Cloudy with Mist and Fog 42 5.7 42 5.7 100 100 S 17 28 29.74 1007 4 6.437376 0 0
11:55 pm 23:55 Cloudy with Mist and Fog 42 5.8 42 5.8 100 100 S 17 28 29.74 1007 4 6.437376 0 0

Powered by AerisWeather